Flag for Maldives Weather past 2 weeks in Male, Maldives

Now
86 °F

Passing clouds.


Feels Like: 95 °F
Forecast: 81 / 89 °F
Wind: 2 mph from North

Location: Male Airport

Current Time: Apr 26, 2015 at 10:33:57 PM

Latest Report: Apr 26, 2015 at 9:00 PM


Visibility: N/A

Pressure: 29.83 "Hg

Humidity: 70%

Dew point: 75 °F

Location of MaleLocation

Historic Weather in Male — Graph

°F

Male temperature yesterday

Maximum temperature yesterday: 90 °F (at 11:00 AM)
Minimum temperature yesterday: 84 °F (at 6:00 AM)
Average temperature yesterday: 87 °F

Past Weeks' High & Low Weather Summary

 TemperatureHumidityPressure
High91 °F (Apr 15, 1:00 PM)89% (Apr 21, 6:00 AM)29.95 "Hg (Apr 21, 6:00 AM)
Low84 °F (Apr 11, 10:00 PM)59% (Apr 15, 1:00 PM)29.74 "Hg (Apr 18, 3:00 PM)
Average87 °F72%29.85 "Hg
* Reported Apr 11 9:00 PM — Apr 26 9:00 PM, Male, Weather by CustomWeather, © 2015

Note: Actual official high and low records may vary slightly from our data, if they occured in-between our weather recording intervals... More about our weather records

Advertising

Male weather history for previous 24 hours

 ConditionsComfort  
Time TempWeatherWind HumidityBarometerVisibility
9:00 PM
Sun, Apr 26
86 °FPassing clouds.2 mph70%29.83 "HgN/A
8:00 PM86 °FPassing clouds.3 mph75%29.83 "HgN/A
7:00 PM86 °FPassing clouds.3 mph75%29.80 "HgN/A
6:00 PM88 °FPartly sunny.5 mph66%29.77 "HgN/A
5:00 PM88 °FPartly sunny.5 mph70%29.77 "HgN/A
4:00 PM88 °FPassing clouds.5 mph70%29.77 "HgN/A
3:00 PM90 °FPassing clouds.8 mph71%29.77 "HgN/A
2:00 PM90 °FBroken clouds.5 mph71%29.80 "HgN/A
1:00 PM90 °FPartly sunny.6 mph67%29.80 "HgN/A
12:00 PM90 °FBroken clouds.6 mph67%29.83 "HgN/A
11:00 AM90 °FScattered clouds.6 mph71%29.86 "HgN/A
10:00 AM90 °FPartly sunny.3 mph67%29.86 "HgN/A
9:00 AM88 °FPartly sunny.5 mph70%29.86 "HgN/A
8:00 AM86 °FScattered clouds.6 mph75%29.86 "HgN/A
7:00 AM86 °FScattered clouds.5 mph75%29.83 "HgN/A
6:00 AM84 °FScattered clouds.5 mph79%29.83 "HgN/A
5:00 AM84 °FPassing clouds.7 mph79%29.80 "HgN/A
4:00 AM84 °FPassing clouds.6 mph79%29.80 "HgN/A
3:00 AM84 °FPassing clouds.7 mph79%29.80 "HgN/A
2:00 AM86 °FPassing clouds.8 mph75%29.80 "HgN/A
12:00 AM86 °FPassing clouds.7 mph75%29.83 "HgN/A
11:00 PM
Sat, Apr 25
86 °FPassing clouds.7 mph75%29.86 "HgN/A
10:00 PM86 °FPassing clouds.5 mph75%29.86 "HgN/A
Weather by CustomWeather, © 2015

See weather overviewHow to use our weather pages